Temp
-21 -21 -21 -21 -21 -20 -21 -20 -20 -19 -20 -21 -22 -22 -21 -22 -23 -23 -23 -23 -23 -23 -22 -23 -23 -23 -22 -22 -21 -21 -21 -20 -19 -20 -20 -21 -21 -21 -21 -21 -21 -21 -21 -19
-22 -21 -21 -21 -21 -21 -21 -21 -21 -20 -21 -22 -23 -24 -24 -24 -24 -23 -23 -23 -23 -23 -23 -24 -23 -23 -22 -22 -22 -22 -21 -20 -20 -20 -20 -21 -21 -21 -21 -22 -22 -21 -22 -21
-22 -22 -22 -22 -22 -21 -21 -21 -21 -21 -21 -23 -23 -23 -23 -23 -24 -24 -23 -23 -23 -24 -24 -24 -23 -23 -23 -22 -22 -22 -21 -21 -21 -21 -21 -21 -22 -22 -23 -23 -22 -22 -21 -21
-22 -22 -22 -22 -22 -22 -22 -22 -22 -23 -23 -24 -24 -24 -25 -24 -25 -25 -25 -25 -24 -24 -24 -24 -23 -23 -22 -22 -21 -21 -22 -22 -22 -22 -23 -23 -22 -23 -23 -23 -23 -22 -22 -21
-22 -22 -22 -23 -23 -22 -23 -24 -24 -24 -24 -24 -25 -25 -25 -26 -25 -25 -25 -25 -24 -24 -23 -23 -23 -22 -22 -22 -22 -22 -22 -23 -23 -24 -24 -25 -25 -24 -24 -24 -24 -22 -22 -22
-23 -23 -23 -23 -24 -24 -24 -24 -25 -25 -25 -25 -25 -26 -26 -26 -25 -25 -25 -24 -24 -23 -23 -23 -23 -22 -23 -23 -23 -23 -23 -24 -25 -25 -26 -26 -26 -26 -26 -25 -25 -24 -23 -22
-23 -24 -24 -24 -24 -24 -24 -25 -25 -26 -26 -26 -25 -26 -26 -25 -25 -25 -24 -24 -23 -23 -23 -23 -23 -23 -23 -23 -24 -24 -25 -26 -26 -26 -26 -26 -26 -26 -25 -25 -25 -24 -24 -23
-24 -24 -24 -24 -24 -25 -26 -26 -26 -26 -26 -26 -26 -26 -25 -25 -25 -24 -24 -24 -23 -23 -23 -23 -23 -23 -24 -24 -24 -25 -26 -26 -26 -26 -27 -26 -26 -26 -25 -25 -25 -25 -24 -23
-24 -24 -25 -26 -26 -26 -26 -26 -26 -26 -27 -26 -26 -25 -25 -25 -24 -24 -24 -24 -24 -24 -24 -24 -24 -24 -25 -25 -26 -25 -26 -26 -27 -27 -27 -26 -26 -26 -25 -25 -24 -24 -23 -22
-25 -25 -26 -26 -26 -26 -26 -26 -26 -27 -27 -26 -26 -25 -25 -25 -25 -24 -24 -24 -24 -24 -24 -24 -24 -25 -26 -26 -25 -26 -26 -26 -26 -26 -26 -26 -25 -25 -25 -24 -24 -23 -23 -22
-25 -26 -26 -26 -26 -26 -26 -27 -27 -26 -26 -26 -26 -25 -25 -25 -25 -25 -24 -24 -24 -24 -24 -24 -25 -26 -27 -26 -26 -25 -26 -26 -26 -26 -26 -26 -25 -24 -24 -23 -23 -23 -23 -22
-26 -26 -26 -26 -26 -27 -27 -27 -27 -27 -26 -26 -26 -25 -25 -25 -25 -25 -25 -25 -25 -25 -25 -25 -25 -26 -26 -26 -26 -25 -26 -26 -26 -26 -26 -26 -25 -24 -24 -24 -23 -23 -22 -23
-27 -27 -26 -26 -27 -27 -27 -27 -27 -27 -27 -26 -26 -26 -25 -25 -25 -25 -25 -25 -25 -25 -25 -25 -26 -27 -26 -26 -26 -26 -26 -26 -26 -26 -25 -25 -25 -24 -24 -24 -23 -22 -23 -23
-28 -27 -27 -27 -27 -27 -27 -27 -27 -27 -27 -26 -26 -26 -26 -26 -26 -26 -26 -26 -26 -26 -26 -26 -27 -27 -27 -26 -26 -26 -26 -26 -25 -25 -25 -25 -25 -25 -24 -24 -24 -24 -24 -23
-28 -27 -27 -27 -27 -27 -27 -27 -27 -27 -26 -26 -26 -26 -26 -26 -26 -26 -26 -26 -27 -27 -27 -27 -27 -27 -27 -27 -26 -26 -26 -25 -25 -25 -25 -25 -26 -25 -25 -25 -24 -24 -23 -23
-28 -27 -27 -27 -27 -27 -27 -27 -27 -27 -26 -26 -26 -26 -26 -26 -27 -27 -27 -27 -27 -27 -28 -28 -28 -28 -28 -27 -27 -26 -26 -25 -25 -25 -25 -25 -25 -25 -24 -24 -24 -24 -23 -23
-27 -27 -27 -27 -27 -27 -27 -27 -27 -27 -27 -27 -26 -27 -27 -27 -27 -27 -27 -28 -28 -28 -28 -29 -29 -29 -28 -27 -27 -26 -26 -26 -25 -25 -25 -25 -25 -24 -24 -24 -24 -23 -23 -23
-27 -27 -27 -27 -27 -27 -27 -27 -27 -27 -27 -27 -27 -27 -27 -27 -27 -28 -28 -29 -29 -29 -29 -29 -29 -29 -28 -27 -27 -26 -26 -26 -26 -25 -25 -25 -25 -24 -24 -24 -24 -24 -24 -24
-28 -28 -27 -27 -27 -27 -27 -27 -27 -27 -27 -27 -27 -27 -27 -28 -28 -29 -29 -30 -30 -30 -30 -30 -30 -29 -28 -28 -27 -27 -27 -26 -26 -25 -25 -25 -25 -24 -24 -24 -24 -24 -24 -24
-28 -27 -27 -27 -27 -27 -27 -27 -27 -27 -27 -27 -27 -27 -28 -28 -29 -29 -30 -30 -30 -30 -30 -30 -30 -29 -28 -27 -27 -27 -27 -26 -26 -26 -25 -24 -24 -24 -24 -25 -25 -25 -25 -25
-28 -27 -27 -27 -27 -27 -27 -27 -27 -27 -27 -27 -27 -28 -28 -29 -29 -30 -30 -30 -30 -30 -30 -30 -29 -28 -28 -27 -27 -27 -26 -26 -27 -27 -26 -26 -26 -26 -25 -25 -25 -25 -25 -25
-28 -28 -28 -28 -27 -27 -27 -27 -28 -28 -28 -28 -28 -28 -29 -29 -29 -29 -29 -29 -29 -29 -29 -29 -28 -28 -27 -27 -27 -27 -26 -27 -27 -27 -27 -26 -26 -26 -25 -25 -25 -25 -25 -25
-28 -28 -28 -28 -27 -27 -28 -28 -28 -28 -28 -28 -28 -29 -29 -29 -29 -29 -29 -29 -29 -29 -29 -28 -28 -27 -27 -27 -27 -27 -27 -26 -26 -26 -26 -26 -25 -25 -25 -25 -25 -25 -25 -25
-28 -28 -28 -28 -28 -28 -28 -28 -28 -28 -28 -28 -29 -29 -29 -29 -29 -29 -29 -29 -29 -28 -28 -27 -27 -27 -27 -27 -27 -26 -26 -26 -26 -26 -25 -25 -25 -25 -25 -25 -25 -25 -25 -25
-28 -28 -28 -28 -28 -28 -28 -28 -28 -28 -28 -29 -29 -29 -29 -29 -29 -28 -28 -28 -28 -28 -28 -28 -27 -27 -27 -27 -26 -26 -26 -26 -25 -25 -25 -25 -25 -25 -25 -25 -25 -25 -25 -25
-28 -28 -28 -28 -28 -28 -28 -28 -29 -29 -29 -29 -29 -29 -29 -29 -28 -28 -28 -28 -27 -28 -27 -28 -27 -27 -26 -26 -26 -26 -25 -25 -25 -26 -26 -25 -25 -25 -25 -25 -25 -25 -26 -26
-28 -28 -28 -29 -29 -29 -29 -29 -29 -29 -29 -29 -29 -29 -29 -28 -28 -28 -28 -28 -28 -28 -27 -27 -27 -26 -26 -26 -26 -26 -26 -26 -26 -25 -25 -25 -25 -25 -25 -25 -26 -26 -26 -26
Height
5492 5493 5494 5494 5496 5498 5499 5501 5503 5503 5504 5504 5504 5508 5512 5518 5525 5532 5538 5542 5546 5550 5555 5557 5560 5563 5567 5571 5575 5577 5579 5578 5578 5579 5578 5577 5578 5577 5577 5576 5577 5574 5575 5578
5483 5484 5485 5486 5487 5489 5491 5494 5495 5496 5498 5500 5502 5505 5511 5517 5523 5526 5533 5539 5544 5548 5550 5554 5557 5560 5564 5566 5568 5567 5568 5568 5568 5567 5565 5566 5567 5567 5564 5562 5561 5565 5566 5569
5477 5477 5478 5479 5481 5482 5485 5487 5490 5492 5495 5499 5502 5506 5512 5518 5522 5526 5530 5535 5539 5544 5547 5550 5552 5554 5558 5559 5560 5559 5558 5558 5559 5557 5555 5554 5555 5552 5548 5547 5547 5552 5555 5560
5469 5470 5472 5474 5475 5477 5481 5484 5487 5491 5494 5499 5503 5507 5512 5515 5519 5524 5530 5535 5539 5542 5545 5546 5548 5549 5550 5550 5550 5552 5551 5550 5548 5546 5543 5542 5537 5537 5536 5532 5536 5538 5548 5550
5462 5463 5466 5469 5471 5474 5478 5482 5484 5488 5493 5498 5502 5506 5511 5516 5521 5525 5529 5533 5536 5538 5540 5541 5543 5544 5544 5543 5541 5540 5539 5537 5536 5534 5530 5525 5523 5526 5523 5521 5520 5525 5534 5543
5456 5458 5461 5464 5467 5471 5474 5478 5481 5489 5493 5497 5502 5507 5512 5517 5520 5524 5527 5530 5532 5534 5537 5537 5537 5536 5536 5536 5534 5530 5529 5526 5523 5525 5521 5517 5515 5512 5509 5508 5507 5513 5521 5534
5451 5454 5457 5461 5464 5468 5473 5477 5483 5488 5493 5498 5503 5507 5512 5516 5520 5523 5525 5526 5528 5531 5531 5531 5531 5530 5528 5527 5524 5521 5520 5517 5516 5517 5513 5511 5509 5506 5505 5502 5500 5506 5517 5528
5447 5450 5454 5458 5463 5468 5472 5477 5483 5488 5494 5499 5504 5507 5511 5514 5517 5520 5521 5523 5525 5525 5525 5525 5524 5523 5520 5517 5515 5514 5514 5511 5508 5507 5508 5509 5506 5503 5503 5504 5504 5509 5518 5527
5443 5447 5452 5458 5462 5467 5472 5477 5483 5487 5492 5498 5501 5506 5509 5511 5513 5516 5517 5519 5520 5520 5519 5519 5517 5515 5513 5511 5512 5511 5509 5505 5501 5501 5504 5505 5503 5502 5501 5504 5508 5512 5520 5526
5441 5447 5453 5457 5462 5467 5473 5478 5483 5488 5492 5497 5500 5504 5507 5509 5511 5513 5514 5514 5515 5515 5514 5513 5512 5510 5510 5509 5509 5508 5506 5505 5502 5502 5503 5504 5502 5501 5500 5504 5510 5511 5518 5523
5439 5446 5451 5457 5462 5467 5473 5479 5484 5488 5492 5496 5500 5502 5505 5506 5507 5508 5510 5511 5511 5510 5510 5509 5508 5507 5507 5507 5507 5507 5505 5505 5504 5504 5503 5503 5501 5502 5504 5505 5508 5511 5516 5520
5439 5444 5450 5456 5462 5467 5473 5478 5482 5487 5492 5496 5497 5499 5500 5503 5504 5505 5506 5507 5506 5507 5506 5504 5503 5505 5506 5507 5506 5506 5506 5504 5503 5504 5503 5502 5503 5501 5503 5506 5508 5513 5516 5520
5438 5443 5449 5456 5461 5466 5472 5476 5482 5486 5489 5492 5495 5496 5498 5500 5501 5502 5503 5502 5503 5502 5501 5500 5500 5502 5504 5506 5507 5505 5507 5505 5505 5505 5505 5504 5503 5503 5505 5507 5508 5513 5514 5518
5436 5441 5449 5455 5460 5465 5470 5475 5480 5484 5487 5490 5492 5493 5495 5497 5497 5498 5498 5498 5498 5498 5497 5497 5497 5500 5502 5505 5507 5506 5507 5507 5507 5506 5505 5505 5505 5506 5506 5508 5510 5512 5516 5520
5435 5441 5448 5454 5458 5463 5469 5474 5478 5482 5486 5488 5489 5491 5492 5492 5493 5493 5494 5493 5493 5493 5493 5493 5493 5496 5499 5502 5505 5506 5505 5506 5506 5506 5506 5505 5506 5507 5508 5511 5513 5515 5517 5519
5434 5440 5446 5452 5457 5463 5467 5472 5476 5479 5482 5485 5486 5487 5487 5488 5489 5489 5489 5488 5488 5489 5489 5488 5489 5491 5495 5498 5502 5504 5505 5505 5505 5505 5506 5507 5508 5509 5511 5511 5512 5514 5516 5517
5432 5439 5444 5450 5456 5461 5465 5470 5473 5476 5479 5481 5482 5482 5483 5483 5484 5483 5483 5482 5482 5482 5482 5483 5484 5487 5490 5494 5498 5501 5502 5503 5505 5505 5506 5507 5508 5510 5511 5512 5513 5514 5516 5516
5431 5438 5444 5449 5454 5459 5463 5467 5470 5473 5475 5477 5478 5478 5479 5479 5478 5478 5476 5475 5474 5473 5474 5476 5479 5483 5487 5490 5493 5497 5499 5501 5502 5504 5505 5507 5508 5510 5510 5511 5513 5515 5515 5516
5432 5437 5443 5448 5453 5457 5461 5464 5467 5470 5473 5472 5473 5475 5475 5474 5473 5472 5469 5467 5465 5465 5466 5469 5474 5479 5484 5487 5490 5493 5496 5498 5499 5500 5502 5505 5507 5509 5510 5511 5512 5513 5514 5514
5431 5437 5441 5446 5451 5455 5459 5462 5464 5466 5467 5469 5470 5471 5470 5470 5468 5467 5466 5462 5459 5459 5462 5464 5469 5475 5481 5486 5488 5491 5492 5493 5495 5496 5498 5501 5504 5505 5507 5508 5509 5510 5510 5510
5430 5435 5440 5445 5449 5453 5456 5459 5462 5463 5465 5466 5467 5466 5466 5466 5466 5466 5466 5464 5462 5461 5463 5465 5469 5476 5481 5484 5487 5488 5489 5491 5490 5490 5493 5497 5500 5502 5504 5506 5507 5507 5507 5506
5429 5434 5438 5443 5447 5451 5455 5456 5459 5460 5462 5462 5462 5462 5462 5463 5465 5466 5466 5465 5465 5466 5468 5469 5473 5477 5481 5482 5484 5487 5489 5490 5491 5492 5494 5497 5499 5502 5503 5504 5504 5504 5503 5501
5428 5433 5437 5442 5446 5449 5452 5454 5456 5457 5458 5459 5459 5459 5460 5463 5465 5467 5467 5466 5467 5468 5471 5473 5476 5478 5480 5482 5484 5486 5488 5490 5491 5493 5495 5497 5499 5500 5500 5500 5500 5499 5498 5496
5427 5432 5436 5440 5444 5447 5449 5451 5453 5454 5455 5455 5456 5459 5462 5464 5466 5467 5468 5470 5470 5471 5473 5475 5477 5479 5481 5482 5484 5487 5488 5490 5492 5493 5494 5495 5496 5497 5496 5496 5495 5494 5493 5491
5426 5430 5434 5439 5442 5444 5447 5449 5450 5452 5452 5454 5457 5460 5463 5465 5467 5469 5471 5472 5472 5474 5474 5476 5477 5479 5481 5483 5485 5487 5489 5490 5491 5492 5492 5493 5493 5493 5493 5493 5492 5490 5488 5485
5424 5429 5433 5437 5440 5442 5445 5447 5449 5450 5451 5455 5458 5462 5464 5466 5468 5470 5471 5472 5472 5474 5474 5476 5478 5480 5482 5484 5485 5487 5488 5489 5489 5489 5490 5491 5491 5491 5490 5489 5487 5484 5481 5477
5423 5427 5431 5434 5438 5441 5443 5446 5448 5450 5453 5457 5460 5463 5466 5468 5469 5471 5472 5473 5474 5475 5476 5477 5478 5480 5482 5483 5484 5485 5486 5487 5487 5488 5488 5488 5488 5487 5485 5483 5480 5476 5472 5467
Wind_Speed
28 28 30 31 29 29 28 28 28 29 27 25 33 41 44 47 38 29 35 34 31 30 27 22 25 26 29 26 22 24 27 31 35 34 35 36 36 40 43 43 41 46 43 41
27 28 28 29 27 27 24 24 24 24 22 27 36 37 33 33 35 38 32 33 33 26 23 23 22 21 23 21 23 29 30 33 34 37 40 40 40 42 46 50 52 47 44 43
25 26 28 25 24 22 21 23 24 25 22 28 32 31 25 21 22 26 29 30 23 19 20 21 21 21 23 27 28 31 34 36 38 41 44 44 43 45 48 50 53 50 49 43
24 24 25 22 20 19 19 21 21 22 25 28 22 18 20 24 21 15 13 15 18 17 17 19 21 24 26 29 32 34 34 36 39 42 42 43 46 47 48 53 53 52 48 46
22 22 23 21 18 18 19 22 25 26 25 23 21 24 21 17 15 16 17 16 15 18 20 22 22 24 27 29 32 33 34 37 37 35 35 33 38 39 43 50 54 52 49 45
20 21 21 21 17 19 27 30 27 23 22 25 26 19 17 17 15 13 14 15 16 18 18 19 22 24 25 26 28 34 35 31 30 24 26 29 36 27 19 24 40 50 51 47
19 19 21 23 24 25 27 26 24 24 24 22 20 18 17 17 15 14 13 15 16 15 17 19 19 20 23 26 29 28 22 24 25 23 26 28 14 13 10 18 18 35 42 41
20 20 22 22 20 28 30 31 28 23 21 17 17 16 16 14 13 14 15 14 14 14 14 16 18 19 23 24 23 20 21 25 27 25 19 10 14 17 2 9 13 21 24 31
20 18 19 23 32 32 31 29 26 22 20 18 17 16 14 14 14 13 12 12 13 11 12 14 17 20 19 18 16 16 20 19 12 11 11 9 13 16 18 6 14 25 25 22
20 21 30 35 30 27 27 26 23 21 19 20 17 16 16 14 13 13 11 10 11 11 12 14 16 13 11 9 11 10 5 0 5 5 6 6 8 11 13 7 21 20 20 11
23 30 36 33 31 30 27 24 20 20 21 19 18 16 12 11 11 10 11 11 11 11 12 13 13 9 5 7 7 4 2 5 10 7 9 5 2 2 7 11 16 12 24 19
27 35 35 32 32 30 28 24 22 22 18 15 14 13 11 11 10 11 13 12 12 11 11 12 11 15 8 7 2 5 6 1 8 3 7 5 5 13 8 19 21 12 23 14
30 35 33 27 33 29 30 26 22 21 18 16 13 12 13 12 12 12 12 13 13 12 11 11 12 16 17 8 3 5 4 5 5 8 10 13 10 15 14 16 21 17 8 5
37 34 30 28 31 29 28 27 22 20 17 15 14 14 13 13 13 12 14 14 13 12 11 12 13 19 13 16 4 4 4 3 3 2 2 11 14 12 15 16 15 13 10 9
37 32 28 31 29 28 25 25 22 19 17 14 14 14 14 13 13 14 14 14 14 14 12 12 14 18 16 12 9 3 6 5 5 4 4 4 11 11 7 5 5 8 7 4
32 29 27 28 22 25 24 24 21 18 17 16 15 15 15 15 15 15 15 17 16 15 14 16 14 18 20 17 12 10 8 7 5 6 5 6 7 6 6 5 4 1 4 3
29 26 26 26 22 24 23 21 19 17 16 15 14 14 15 15 17 18 18 18 18 19 19 19 15 19 20 20 17 15 10 11 8 7 7 9 10 6 3 1 1 2 5 6
25 28 26 23 22 23 21 19 18 16 15 14 14 15 16 17 18 18 18 20 23 22 18 18 18 19 21 21 18 16 14 13 12 9 9 8 14 10 9 7 7 6 6 8
25 29 27 23 21 20 19 17 15 13 13 13 15 15 15 16 17 17 19 19 20 19 20 23 21 22 24 19 19 15 12 12 15 19 13 13 13 10 7 8 7 9 11 11
24 26 25 23 20 18 16 14 13 13 13 15 14 13 15 14 14 7 4 7 5 9 11 13 17 25 22 19 14 7 6 7 11 16 24 21 20 18 15 12 10 11 10 10
23 22 21 19 18 17 15 13 13 12 13 14 12 13 13 11 6 9 1 4 6 3 8 14 22 22 18 14 9 3 3 8 10 17 21 16 14 13 11 11 11 12 13 15
23 22 21 19 17 16 15 14 13 13 12 11 10 11 8 10 13 9 4 6 6 4 11 16 18 16 12 8 4 4 8 7 9 11 12 13 14 13 13 11 10 12 17 19
24 23 21 19 18 16 15 14 13 10 9 9 9 6 16 17 14 11 6 8 11 15 13 15 15 12 8 6 6 8 11 10 10 11 12 11 10 8 7 10 14 16 15 15
23 22 21 20 17 15 14 12 10 9 8 7 8 19 19 16 12 10 12 12 13 12 12 11 10 7 6 8 9 12 10 10 9 8 6 4 4 6 8 9 11 12 15 19
23 21 21 18 15 14 11 10 10 8 8 11 23 21 18 14 12 13 14 8 8 6 7 8 8 8 11 12 11 9 9 8 5 5 7 7 7 7 8 11 15 19 23 27
23 22 20 16 16 14 12 11 10 10 15 25 23 18 14 14 10 8 7 5 4 7 9 8 13 13 11 9 10 11 10 9 8 7 6 6 7 10 14 18 23 28 31 34
22 20 18 16 16 15 15 13 12 18 26 24 21 16 13 11 9 9 7 6 7 6 7 8 12 14 14 13 11 9 8 7 6 5 6 9 13 17 22 26 29 31 32 35
Wind_Direction
263 259 256 247 249 249 246 255 256 270 270 265 241 224 215 212 191 186 204 202 207 210 215 215 222 231 237 245 254 254 252 254 256 259 260 262 260 262 261 255 247 258 262 268
262 262 259 246 246 242 247 250 252 258 258 228 215 204 200 190 192 195 194 209 217 219 217 225 237 243 243 244 252 256 259 261 267 270 271 268 266 265 263 259 256 257 255 257
258 256 252 247 245 241 243 248 247 242 235 223 213 205 196 196 200 202 209 211 210 209 222 234 238 246 254 256 258 263 265 268 270 272 272 271 269 268 263 259 257 253 252 249
251 248 247 239 231 230 230 227 228 230 214 198 198 194 188 180 172 173 185 201 215 220 228 241 248 252 257 262 266 269 268 268 269 270 272 270 267 264 260 260 259 254 245 246
244 240 236 229 218 213 207 209 203 198 195 193 186 178 168 160 175 190 201 212 224 233 236 241 248 258 266 270 271 273 274 275 274 275 277 273 272 269 262 254 251 249 244 237
232 229 223 218 204 208 198 203 191 177 173 176 172 164 170 179 185 195 211 224 233 239 245 251 260 268 270 272 275 276 279 278 279 277 275 280 293 293 290 280 250 241 237 232
219 215 212 207 201 201 197 184 176 170 169 174 162 158 176 194 201 210 225 235 237 239 251 262 266 273 276 276 275 274 271 279 281 277 279 297 283 254 339 295 258 233 231 232
212 201 200 201 197 176 172 168 168 165 158 163 175 180 192 200 212 222 230 228 237 255 265 275 279 282 284 283 276 272 279 289 287 279 282 258 274 271 268 211 247 218 229 223
196 190 195 190 171 171 172 175 169 165 168 175 188 192 204 219 224 233 233 240 253 268 283 289 290 287 282 259 265 280 289 295 282 251 223 269 271 267 249 271 203 186 200 197
189 185 180 178 176 176 178 172 165 164 179 187 191 201 212 220 230 230 238 260 273 279 294 298 296 279 240 260 280 277 262 103 142 202 237 196 275 252 273 273 205 204 202 182
187 186 185 182 181 174 172 170 172 181 186 194 203 213 218 223 232 247 257 267 275 285 292 297 295 215 185 240 235 183 170 306 330 301 298 304 335 33 187 205 190 209 210 226
191 188 187 181 179 177 181 172 183 193 188 201 210 217 223 232 242 251 260 271 281 286 292 301 275 202 169 168 220 223 292 343 269 240 153 80 158 137 204 175 175 208 208 198
191 187 184 182 184 187 183 184 188 196 196 207 219 227 232 242 248 258 268 277 282 290 296 295 245 208 200 171 55 156 156 99 111 159 141 107 84 152 160 174 167 180 151 185
182 190 185 187 189 193 189 188 192 198 206 216 223 234 243 248 257 264 273 280 284 284 287 285 244 211 209 209 228 105 132 169 177 78 87 118 103 93 127 144 140 141 158 189
185 191 189 194 200 199 197 203 203 204 215 224 232 240 248 255 267 274 277 278 276 277 277 279 248 214 206 190 183 144 103 117 136 141 83 99 85 88 97 125 159 174 190 220
185 198 198 198 201 204 206 202 201 211 222 234 241 249 256 265 271 276 277 275 272 268 270 268 253 218 199 194 189 179 168 140 133 155 180 159 137 120 100 106 110 170 287 303
187 187 183 186 194 196 197 200 210 221 230 239 248 259 268 273 277 279 279 275 269 270 267 249 243 218 197 186 189 191 180 172 161 163 168 194 184 186 172 170 236 283 300 317
183 185 186 193 197 199 205 212 219 226 234 245 254 263 270 279 281 282 280 273 273 267 252 235 227 209 193 184 185 193 201 191 184 198 203 188 203 210 243 265 278 297 290 289
181 182 186 190 194 199 206 213 220 229 239 249 257 269 278 283 286 289 288 283 274 260 241 230 219 195 184 179 172 177 198 205 213 199 193 213 208 212 213 217 247 276 281 282
184 189 194 196 197 200 204 211 219 230 240 252 265 279 282 284 294 294 338 313 274 235 232 206 198 182 182 169 157 148 191 235 248 224 197 198 218 225 229 224 237 242 247 259
185 187 189 192 197 203 209 214 224 235 247 261 273 278 283 288 178 151 139 19 70 127 161 163 165 169 163 159 148 116 241 228 221 216 206 204 194 189 202 219 233 246 258 270
188 190 194 198 202 207 212 221 230 240 251 266 274 283 269 180 163 163 129 57 79 115 138 152 154 154 153 150 122 193 177 154 154 150 157 168 181 194 210 218 237 266 287 294
193 197 198 201 204 210 218 224 232 242 255 267 277 227 164 160 159 164 146 101 131 144 155 152 150 153 167 176 192 179 167 161 162 163 165 171 183 201 241 271 281 284 282 287
196 199 202 205 208 212 218 225 232 240 251 262 193 162 154 155 163 159 149 141 144 143 149 157 168 180 186 179 169 167 169 167 167 169 180 217 240 251 255 262 274 281 286 290
198 199 202 202 205 211 217 220 226 236 231 182 163 160 157 165 164 156 148 137 149 154 171 177 170 168 159 155 165 173 176 183 198 234 254 246 243 261 282 288 290 292 295 297
195 197 202 199 203 206 208 215 220 216 174 164 163 160 160 157 135 137 139 162 180 167 174 170 168 167 165 179 185 191 206 224 235 234 242 257 276 288 290 293 297 299 302 304
194 197 199 199 202 202 206 206 203 177 167 166 160 155 156 157 144 153 155 133 151 168 177 177 184 188 197 211 217 226 231 229 236 256 278 289 294 296 300 301 302 306 312 315